Tracking 17857 objects as of 29-September-2016
HD Live streaming from Space Station
objects crossing your sky now

KOMPSAT 3

Track KOMPSAT 3 now!
10-day predictions
KOMPSAT 3 is classified as:


NORAD ID: 38338
Int'l Code: 2012-025B
Perigee: 687.8 km
Apogee: 703.5 km
Inclination: 98.2 °
Period: 98.5 minutes
Semi major axis: 7066 km
RCS: 5.2993 m2 (large)
Launch date: May 17, 2012
Source: South Korea (SKOR)
Launch site: TANEGASHIMA SPACE CENTER (TNSTA)
Uplink (MHz):
Downlink (MHz):
Beacon (MHz):
Mode:
Call sign:
Status:

Your satellite tracking list
Your tracking list is empty





NASA's NSSDC Master Catalog

Two Line Element Set (TLE):
1 38338U 12025B   16272.81216253  .00000124  00000-0  34422-4 0  9997
2 38338  98.1681 208.5091 0011085  70.8979 289.3427 14.61445723233000
Source of the keplerian elements: AFSPC

N2YO: 535